Torna al catalogo

STARLINK-30900

AttivoComunicazioniVLEO
NORAD 58423·PAYLOAD·🇺🇸 United States

Lanciato Nov 22, 2023 da Cape Canaveral Space Force Station

Loading…

Prossimi Passaggi (prossime 24 ore)

TLE

AggiornatoSource: CelesTrak SupGP

Epoca: Sep 15, 2026, 02:37 UTC

1 58423C 23180X   26258.10951389 -.00065108  00000+0 -23580-2 0  2584
2 58423  43.0006  62.6261 0001523 263.7199 208.8758 15.27613070    19

Traccia STARLINK-30900 in tempo reale con AllMySat

Download on the App Store